Flag for Brazil Weather past 2 weeks in Santarém, Para, Brazil

Now
86 °F

Scattered clouds.


Feels Like: 97 °F
Forecast: 74 / 84 °F
Wind: 12 mph from Northeast

Location: Santarem-Aeroporto

Current Time: Jul 25, 2014 at 2:38:23 PM

Latest Report: Jul 25, 2014 at 2:00 PM


Visibility: N/A

Pressure: 29.86 "Hg

Humidity: 75%

Dew point: 77 °F

Location of SantarémLocation

Historic Weather in Santarém — Graph

°F

Santarém temperature yesterday

Maximum temperature yesterday: 86 °F (at 1:00 PM)
Minimum temperature yesterday: 73 °F (at 7:00 AM)
Average temperature yesterday: 80 °F

Past Weeks' High & Low Weather Summary

 TemperatureHumidityPressure
High88 °F (Jul 15, 4:00 PM)100% (Jul 10, 9:00 PM)30.04 "Hg (Jul 10, 9:00 PM)
Low72 °F (Jul 14, 6:00 AM)62% (Jul 19, 2:00 PM)29.80 "Hg (Jul 11, 5:00 PM)
Average80 °F86%29.94 "Hg
* Reported Jul 10 1:00 PM — Jul 25 1:00 PM, Santarém, Weather by CustomWeather, © 2014

Note: Actual official high and low records may vary slightly from our data, if they occured in-between our weather recording intervals... More about our weather records

Advertising

Santarém weather history for previous 24 hours

 ConditionsComfort  
Time TempWeatherWind HumidityBarometerVisibility
1:00 PM
Jul 25
86 °FPartly sunny.8 mph75%29.92 "HgN/A
12:00 PM82 °FBroken clouds.7 mph84%29.95 "HgN/A
11:00 AM81 °FBroken clouds.9 mph84%29.95 "HgN/A
10:00 AM79 °FBroken clouds.5 mph89%29.95 "HgN/A
9:00 AM77 °FBroken clouds.5 mph94%29.95 "HgN/A
8:00 AM77 °FBroken clouds.16 mph89%29.95 "HgN/A
7:00 AM75 °FBroken clouds.9 mph100%29.89 "HgN/A
6:00 AM73 °FPartly cloudy.3 mph100%29.89 "HgN/A
5:00 AM73 °FMostly cloudy.1 mph100%29.86 "HgN/A
4:00 AM73 °FLight rain. Mostly cloudy.8 mph100%29.89 "Hg3 mi
3:00 AM75 °FLight rain. Passing clouds.2 mph94%29.86 "HgN/A
2:00 AM73 °FRain. Passing clouds.17 mph94%29.89 "Hg1 mi
1:55 AM75 °FRain. Passing clouds.17 mph94%29.89 "Hg1 mi
1:00 AM81 °FPassing clouds.6 mph84%29.92 "HgN/A
12:00 AM77 °FPassing clouds.2 mph94%29.92 "HgN/A
11:00 PM
Jul 24
79 °FPassing clouds.12 mph94%29.92 "HgN/A
10:00 PM77 °FClear.No wind94%29.89 "Hg10 mi
9:00 PM77 °FClear.2 mph94%29.89 "Hg10 mi
8:00 PM79 °FClear.3 mph89%29.86 "Hg10 mi
7:00 PM81 °FClear.3 mph84%29.86 "Hg10 mi
6:00 PM84 °FScattered clouds.9 mph74%29.83 "HgN/A
5:00 PM86 °FScattered clouds.7 mph70%29.83 "HgN/A
4:00 PM86 °FPassing clouds.8 mph70%29.86 "HgN/A
3:00 PM86 °FPassing clouds.8 mph70%29.86 "HgN/A
2:00 PM86 °FScattered clouds.12 mph75%29.89 "HgN/A
Weather by CustomWeather, © 2014

See weather overviewHow to use our weather pages